User: anonymous   Login
Location: Skalnate Pleso
(49.1889°N, 20.2450°E)
Time: 14:40:33
(UTC+02:00)
Language:

Iridium 18 - Orbit

View from above orbital plane
View from above orbital plane
View from above satellite
View from above satellite

Ground track
Ground track

The orbit data is extracted from the following two-line orbital elements,

1 24872U 97034D   15180.50726014  .00000152  00000-0  47373-4 0  9992
2 24872 086.3968 322.4344 0002291 095.9964 264.1493 14.34218973940906
Epoch (UTC): 29 June 2015 12:10:27
Eccentricity: 0.0002291
inclination: 86.3968°
perigee height: 776 km
apogee height: 779 km
right ascension of ascending node: 322.4344°
argument of perigee: 95.9964°
revolutions per day: 14.34218973
mean anomaly at epoch: 264.1493°
orbit number at epoch: 94090

The dashed part of the orbit path shows where the satellite is in the earth's shadow,  

DLR